Theta_e
314 314 315 316 317 316 316 316 317 316 316 316 317 316 315 315 315 315 316 316 315 315 313 311 310 310 310 310 310 310 310 310 310 313 314 316 317 317 317 317 316 315 313 310
314 315 316 316 316 314 315 315 316 316 317 316 316 315 314 314 316 316 316 315 315 313 312 310 308 307 306 306 306 307 307 308 308 310 311 313 314 315 315 314 314 313 312 309
317 319 317 314 315 315 316 316 316 316 315 314 314 315 316 317 319 315 313 313 312 311 309 308 305 304 303 303 303 304 305 305 306 306 308 309 310 308 309 310 311 311 310 308
317 313 312 313 314 314 315 315 314 313 313 315 313 316 317 319 319 313 312 310 309 308 306 305 303 301 301 301 301 302 302 303 302 303 305 306 307 306 306 306 307 308 307 306
315 312 312 313 313 313 314 312 312 312 313 314 315 316 319 320 316 313 311 309 307 305 304 303 301 300 299 299 299 300 299 300 301 302 302 303 304 304 304 305 304 303 304 303
313 310 311 314 312 311 311 311 313 314 314 320 320 320 320 316 314 311 309 307 306 304 303 302 300 299 298 297 297 297 297 297 298 299 299 301 302 302 302 302 302 302 302 302
317 317 319 311 314 312 310 313 323 325 323 324 316 322 319 316 311 310 308 307 305 303 302 300 300 299 298 297 296 296 296 295 295 296 297 297 298 299 300 300 301 301 301 300
320 318 317 311 313 315 314 316 323 328 326 326 321 322 321 313 309 309 308 306 304 302 301 299 298 297 297 296 295 295 295 294 293 294 294 295 296 296 297 298 298 299 299 299
318 318 312 309 309 311 316 316 316 324 322 323 318 317 317 311 310 309 307 305 302 301 299 299 297 296 295 294 294 293 293 292 292 292 292 293 293 294 294 295 295 296 296 297
317 320 318 314 308 309 309 309 316 316 322 321 317 317 317 313 311 309 306 303 301 299 298 297 296 295 294 293 293 292 292 291 290 290 291 291 291 292 292 293 293 293 293 294
317 318 318 314 314 315 312 311 310 312 317 321 321 317 314 312 311 308 303 300 299 298 297 296 295 294 293 292 291 291 290 289 289 289 289 289 289 290 290 289 289 290 291 292
314 316 318 315 312 313 313 314 314 316 316 316 317 317 315 308 306 302 301 299 297 295 294 293 293 292 291 290 289 289 289 288 287 287 288 288 287 288 288 288 287 286 286 287
314 315 316 313 308 312 315 314 314 316 315 318 321 320 311 308 303 299 299 296 294 294 291 291 291 291 290 289 288 288 287 287 287 286 286 286 286 287 287 287 286 285 285 285
311 313 315 315 309 310 313 311 313 313 314 313 313 313 310 308 308 307 299 296 294 293 291 290 290 290 289 289 288 287 287 287 286 285 285 285 285 285 285 286 285 283 283 284
308 310 308 309 309 308 308 307 308 307 308 309 308 308 306 305 302 297 293 292 292 293 292 290 289 289 289 288 288 287 286 286 286 285 285 284 284 283 283 284 283 282 282 283
303 304 304 305 303 303 304 304 304 304 304 303 303 304 303 298 296 296 295 292 291 291 291 290 290 289 289 288 288 287 286 286 285 284 284 284 283 283 283 283 283 281 281 282
301 301 302 302 300 300 301 300 300 300 300 301 301 300 296 295 293 292 292 291 291 290 290 290 290 289 289 288 288 287 287 286 285 284 283 283 283 282 282 281 281 281 280 280
299 300 301 301 299 299 298 297 295 295 296 297 298 296 293 291 291 292 292 291 291 291 290 290 290 289 288 288 287 286 286 285 284 283 283 282 282 282 281 281 280 279 279 280
295 296 298 298 298 297 295 294 294 294 295 297 298 293 291 291 290 291 292 292 291 291 290 290 289 288 287 286 285 283 283 282 282 282 281 281 281 281 280 279 279 278 278 278
292 294 297 295 295 294 293 293 291 291 294 296 295 293 291 291 290 291 291 291 291 291 290 290 288 286 285 284 282 281 281 281 280 280 280 280 279 279 279 278 278 277 276 276
294 294 296 296 297 294 293 293 291 293 294 294 293 292 291 291 292 292 291 291 290 290 290 288 286 284 283 281 280 279 279 279 278 277 277 276 276 276 276 275 275 275 274 274
291 293 294 293 294 293 293 291 292 293 293 294 292 292 292 292 291 291 290 290 290 288 286 284 282 281 279 278 277 276 276 275 274 273 272 271 271 270 271 271 271 271 271 271
291 292 292 292 292 292 292 293 293 292 293 292 292 292 291 291 290 290 290 289 287 284 282 280 278 277 276 275 274 273 272 271 269 268 267 266 266 266 266 267 267 268 268 269
291 292 292 292 291 291 291 292 291 292 292 292 292 291 291 290 289 288 285 284 283 280 279 277 275 274 273 272 271 270 269 267 266 265 264 264 264 264 264 265 265 266 266 267
293 292 292 292 291 291 291 291 291 291 291 291 291 288 288 287 285 284 282 280 279 277 275 274 272 271 271 269 268 267 266 265 264 264 263 263 264 264 264 264 264 265 265 266
292 292 292 292 291 291 291 291 291 291 290 290 290 285 282 281 281 279 278 276 274 273 272 270 270 269 267 267 266 265 264 264 263 263 263 263 263 264 264 264 264 265 266 267
Wind_Speed
9 8 10 15 16 20 22 22 24 22 20 23 24 24 20 19 24 25 19 13 6 9 13 21 22 23 20 18 13 6 4 8 10 13 16 18 21 20 21 22 22 21 22 25
3 12 15 16 16 13 18 22 23 21 18 16 20 23 25 23 21 15 12 10 3 10 17 19 23 25 27 25 23 18 11 4 5 9 11 13 13 17 17 18 21 23 24 24
16 16 15 10 13 17 20 18 21 24 18 18 18 19 10 10 17 5 10 13 15 16 16 16 20 25 26 27 26 24 19 12 5 3 5 6 8 7 10 14 18 20 22 25
11 6 5 10 12 16 18 16 14 15 12 9 7 9 16 18 13 15 19 15 14 15 16 15 18 25 28 26 25 24 21 17 13 8 4 3 7 9 10 12 12 15 19 22
1 1 3 7 10 11 13 6 10 10 12 16 13 9 6 13 5 14 15 13 13 14 15 15 17 20 22 24 24 22 22 24 20 14 9 5 5 8 11 11 7 12 15 20
12 4 4 7 7 8 8 9 14 16 8 8 12 11 5 5 10 9 14 13 12 12 13 14 17 18 21 21 22 24 20 23 26 21 16 11 8 8 9 10 10 10 12 16
6 13 13 6 9 8 7 8 6 5 6 7 4 7 9 8 8 10 10 10 10 11 12 12 14 17 17 18 18 17 20 26 26 23 21 18 15 10 9 10 10 11 12 14
8 11 5 9 10 5 7 4 4 6 10 15 14 8 8 10 12 11 10 10 9 10 9 9 11 10 13 15 14 14 19 21 23 21 20 19 18 17 15 12 12 13 12 13
5 6 3 5 1 2 4 6 5 2 3 5 9 17 16 13 11 11 9 7 7 7 7 8 9 12 12 13 17 19 19 20 19 19 18 19 18 19 17 15 14 13 13 14
2 7 5 2 1 7 3 4 3 4 5 11 14 19 14 13 12 9 7 6 6 7 9 10 12 14 15 16 15 15 17 18 17 16 15 14 21 21 19 17 18 17 16 16
3 4 5 4 7 12 6 6 5 5 8 11 15 13 9 10 8 4 5 6 7 8 9 9 9 11 12 12 13 13 15 15 18 20 19 19 18 17 19 22 23 22 20 18
9 4 8 21 21 20 16 18 17 12 13 10 14 18 8 13 5 4 3 4 3 4 6 8 11 11 14 15 18 19 19 19 19 19 18 16 17 17 17 19 20 24 27 27
3 2 4 9 12 5 3 5 7 9 4 13 14 7 9 7 5 2 5 3 2 3 6 6 8 11 14 15 17 17 17 17 18 18 17 17 16 16 16 17 20 24 24 25
3 4 11 14 18 18 15 14 11 7 5 13 14 20 28 24 17 13 9 4 4 2 3 5 7 10 9 10 12 13 14 15 16 18 19 19 19 19 18 18 20 24 27 25
3 9 13 17 18 17 17 17 24 24 23 20 24 24 23 20 12 2 2 2 4 6 5 3 6 8 11 13 13 14 15 16 16 17 18 18 21 23 25 22 23 26 27 26
2 9 9 14 16 18 20 24 24 23 24 25 24 26 22 6 3 4 4 4 5 6 6 6 7 8 9 10 11 13 16 17 19 24 25 27 29 28 25 24 24 25 25 25
4 5 5 15 14 15 12 20 22 23 25 24 22 13 6 3 3 6 8 9 10 10 10 9 8 9 9 11 11 14 16 18 21 24 27 28 28 29 30 30 28 27 27 26
12 11 8 10 8 15 12 9 10 16 18 13 4 5 4 3 8 10 10 10 11 13 14 12 12 14 12 13 14 15 16 18 22 24 28 31 28 28 28 28 29 31 29 29
17 13 7 6 12 17 22 17 15 13 16 1 6 8 3 8 12 14 10 9 12 12 13 16 14 13 14 13 12 14 18 20 21 23 26 28 29 30 32 35 36 36 31 33
7 14 10 5 8 11 8 3 3 1 9 6 5 5 4 7 8 12 14 12 12 15 15 15 11 15 16 15 14 15 19 21 22 24 27 28 29 31 32 35 37 38 37 38
3 4 13 14 12 10 7 4 3 6 7 8 6 4 10 11 11 14 13 12 14 14 14 10 14 15 15 15 17 20 20 20 24 26 28 30 31 33 35 37 38 38 39 39
7 6 7 6 10 13 3 6 7 3 5 8 8 13 12 13 13 12 13 12 10 12 12 12 14 17 20 19 19 23 24 25 26 28 31 32 33 35 36 37 38 37 37 38
6 10 6 7 6 5 7 8 9 11 12 17 16 15 13 13 13 12 11 9 9 10 12 13 14 19 21 18 19 24 29 29 30 30 30 31 32 32 34 35 37 36 34 34
15 19 13 15 17 21 19 19 19 19 18 18 16 12 10 12 9 4 4 6 7 10 13 15 17 19 23 22 23 25 29 29 30 31 31 30 30 31 32 32 31 32 31 31
12 9 14 15 20 19 20 21 20 20 18 17 10 5 8 6 5 4 4 5 9 12 13 14 17 21 24 27 28 27 28 28 29 30 31 31 30 31 32 31 32 32 34 35
17 20 13 15 20 16 19 18 14 13 17 13 10 7 4 2 4 3 5 7 9 11 14 17 19 21 26 28 29 30 29 28 30 31 29 29 32 32 32 32 33 34 39 41
Wind_Direction
193 223 222 249 255 263 280 286 285 288 292 290 288 294 297 287 279 283 287 305 306 49 52 51 40 35 38 39 32 5 270 236 226 226 225 223 225 223 225 227 227 224 219 215
194 245 258 275 276 288 279 280 283 285 292 306 298 291 291 286 276 283 295 312 66 98 69 55 40 35 30 27 30 29 17 329 241 233 237 238 238 237 236 234 230 223 218 215
257 274 298 287 266 269 267 276 287 296 311 299 292 286 256 278 298 28 38 83 79 65 64 50 37 33 33 28 26 31 29 24 4 279 257 250 255 262 255 240 239 230 224 218
267 342 306 282 267 269 282 298 313 307 311 295 19 292 297 275 266 80 94 71 73 68 61 50 41 36 29 25 25 31 37 46 39 17 329 298 272 273 273 259 249 240 233 228
37 68 319 274 275 287 282 338 311 298 280 285 271 251 291 285 183 114 91 74 63 58 54 55 46 44 39 30 29 31 35 38 42 39 18 344 322 302 300 294 258 244 239 236
251 176 229 246 291 251 314 287 276 262 270 263 277 252 282 48 108 115 97 81 63 49 49 49 49 46 39 34 34 32 32 39 37 33 26 13 347 327 311 306 289 272 248 240
236 241 264 213 266 205 222 272 307 281 212 269 60 333 264 343 84 120 110 90 74 66 52 41 35 34 36 37 35 32 29 38 35 30 31 18 2 355 342 326 300 282 270 253
278 291 206 164 221 315 193 253 221 278 288 294 319 261 252 128 117 111 111 98 82 63 54 46 39 33 36 29 33 35 39 39 32 24 24 24 18 8 353 338 316 305 295 283
287 243 99 211 342 272 161 223 276 215 220 269 250 267 266 140 142 135 119 95 70 63 52 51 53 44 42 37 33 30 32 34 29 24 22 18 13 15 8 358 345 330 312 305
56 287 260 276 219 225 244 359 203 168 256 260 262 279 270 208 178 154 121 72 37 27 31 31 30 32 30 31 26 28 32 32 27 25 19 7 9 7 4 3 3 353 337 320
171 201 249 276 219 253 232 249 228 289 247 259 271 268 304 67 116 130 56 31 19 15 15 17 18 25 29 26 21 22 25 26 21 18 17 18 12 3 357 356 354 352 349 340
197 251 256 270 286 281 274 268 266 255 250 227 251 251 283 25 88 55 7 1 25 26 23 19 15 10 18 17 14 13 12 15 15 8 6 8 4 2 359 353 349 350 346 345
34 235 286 288 285 53 30 350 321 298 275 248 261 270 32 10 5 357 332 290 312 344 23 13 8 8 5 4 2 357 357 359 0 358 353 355 355 352 349 345 342 344 344 343
116 237 242 264 275 303 297 306 272 241 266 291 278 286 293 287 279 255 276 223 235 242 327 350 356 351 347 350 344 338 341 346 344 340 339 338 339 337 333 328 328 333 335 334
247 256 265 269 278 290 291 283 272 270 270 267 279 282 283 298 324 24 179 238 264 261 259 304 314 312 321 330 331 331 329 330 327 323 322 318 317 319 320 319 318 322 324 322
199 260 286 274 273 269 268 266 268 274 275 273 273 271 275 353 327 296 318 332 326 308 288 281 273 277 282 288 297 305 310 315 319 319 316 315 315 315 312 312 310 313 312 311
240 252 258 264 280 298 277 255 261 261 266 269 275 302 31 42 326 331 331 324 316 319 306 279 283 289 284 280 284 291 297 300 304 304 303 304 304 304 307 309 308 306 306 306
247 243 252 275 293 256 264 287 297 282 284 287 269 139 123 351 326 318 318 300 301 310 313 299 292 298 304 303 300 291 286 284 285 287 293 297 298 295 297 301 300 301 303 301
235 249 259 250 246 276 292 290 290 260 280 244 213 177 170 340 330 303 305 329 323 312 300 297 301 299 304 308 314 304 294 290 286 283 284 284 286 288 292 293 295 296 299 298
239 232 231 196 248 263 310 64 35 24 270 174 164 168 317 325 293 294 322 312 305 305 305 313 313 304 308 322 316 303 298 298 295 293 291 290 288 286 286 286 287 289 292 291
189 222 225 236 248 259 274 92 141 248 295 153 164 263 286 278 275 294 297 292 296 303 318 313 310 313 314 319 317 306 306 302 302 303 301 297 293 290 287 287 286 288 287 287
219 236 220 238 257 267 80 123 223 288 135 170 237 295 286 277 283 287 292 294 313 332 331 332 322 314 318 324 325 313 307 310 308 304 300 299 298 296 293 291 288 286 285 284
239 237 264 228 243 208 190 251 253 267 276 286 289 293 288 285 277 287 290 308 317 322 320 321 318 311 309 317 319 308 307 312 310 307 301 299 297 294 292 290 289 288 284 279
264 255 252 254 251 260 271 268 269 271 274 285 285 278 271 270 282 300 297 297 306 309 316 322 319 311 307 315 313 305 307 309 307 304 303 302 298 296 293 289 286 284 283 282
248 282 253 256 258 266 261 261 264 267 269 274 284 264 255 255 253 272 287 300 304 312 315 315 311 305 304 310 308 308 308 309 305 303 302 300 298 295 293 288 284 282 278 275
246 251 254 257 260 260 270 276 280 284 281 267 255 205 190 210 257 282 285 301 307 308 311 308 304 302 302 303 304 307 309 308 305 304 303 300 298 294 291 289 288 283 284 285